Location: Newark
(44.3681°N, 100.3364°W)
Time: 06:06:15
(UTC+00:00)

S-56A Canister/Altair - Pass Details

Date: 29 February 2020
Orbit: 634 x 2498 km, 38.9° (Epoch: 08 April)

Event Time Altitude Azimuth Distance (km) Brightness Sun altitude
Rises 17:24:31 0° 256° (WSW) 5,425 11.7 34.3°
Reaches altitude 10° 17:27:45 10° 254° (WSW) 4,619 11.5 34.5°
Maximum altitude 17:41:17 71° 175° (S) 2,573 11.2 35.5°
Drops below altitude 10° 17:56:12 10° 96° (E) 5,033 12.1 36.4°
Sets 17:59:54 0° 94° (E) 5,919 12.3 36.6°
